Time,TemperatureF,DewpointF,PressureIn,WindDirection,WindDirectionDegrees,WindSpeedMPH,WindSpeedGustMPH,Humidity,HourlyPrecipIn,Conditions,Clouds,dailyrainin,SolarRadiationWatts/m^2,SoftwareType,DateUTC
2013-03-12 00:22:00,51.0,48.0,-100.00,NNW,343,7.0,15.0,88,0.00,,,0.00,0.000000,,2013-03-12 10:22:00,
2013-03-12 00:32:00,51.0,48.0,-100.00,NNW,343,7.0,15.0,88,0.00,,,0.00,0.000000,,2013-03-12 10:32:00,
2013-03-12 00:42:00,51.0,48.0,-100.00,NNW,343,7.0,15.0,88,0.00,,,0.00,0.000000,,2013-03-12 10:42:00,
2013-03-12 00:52:00,51.0,48.0,-100.00,NNW,343,7.0,15.0,88,0.00,,,0.00,0.000000,,2013-03-12 10:52:00,
2013-03-12 01:22:00,51.0,47.0,-100.00,NNW,337,2.0,10.0,87,0.00,,,0.00,0.000000,,2013-03-12 11:22:00,
2013-03-12 01:32:00,51.0,47.0,-100.00,NNW,337,2.0,10.0,87,0.00,,,0.00,0.000000,,2013-03-12 11:32:00,
2013-03-12 01:42:00,51.0,47.0,-100.00,NNW,337,2.0,10.0,87,0.00,,,0.00,0.000000,,2013-03-12 11:42:00,
2013-03-12 01:52:00,51.0,47.0,-100.00,NNW,337,2.0,10.0,87,0.00,,,0.00,0.000000,,2013-03-12 11:52:00,
2013-03-12 02:22:00,51.0,48.0,-100.00,WNW,289,11.0,15.0,88,0.00,,,0.00,0.000000,,2013-03-12 12:22:00,
2013-03-12 02:32:00,51.0,48.0,-100.00,WNW,289,11.0,15.0,88,0.00,,,0.00,0.000000,,2013-03-12 12:32:00,
2013-03-12 02:42:00,51.0,48.0,-100.00,WNW,289,11.0,15.0,88,0.00,,,0.00,0.000000,,2013-03-12 12:42:00,
2013-03-12 02:52:00,51.0,48.0,-100.00,WNW,289,11.0,15.0,88,0.00,,,0.00,0.000000,,2013-03-12 12:52:00,
2013-03-12 03:22:00,49.0,44.0,-100.00,NNW,330,7.0,15.0,83,0.00,,,0.00,0.000000,,2013-03-12 13:22:00,
2013-03-12 03:32:00,49.0,44.0,-100.00,NNW,330,7.0,15.0,83,0.00,,,0.00,0.000000,,2013-03-12 13:32:00,
2013-03-12 03:42:00,49.0,44.0,-100.00,NNW,330,7.0,15.0,83,0.00,,,0.00,0.000000,,2013-03-12 13:42:00,
2013-03-12 03:52:00,49.0,44.0,-100.00,NNW,330,7.0,15.0,83,0.00,,,0.00,0.000000,,2013-03-12 13:52:00,
2013-03-12 04:22:00,48.0,45.0,-100.00,ESE,115,1.0,9.0,89,0.00,,,0.00,0.000000,,2013-03-12 14:22:00,
2013-03-12 04:32:00,48.0,45.0,-100.00,ESE,115,1.0,9.0,89,0.00,,,0.00,0.000000,,2013-03-12 14:32:00,
2013-03-12 04:42:00,48.0,45.0,-100.00,ESE,115,1.0,9.0,89,0.00,,,0.00,0.000000,,2013-03-12 14:42:00,
2013-03-12 04:52:00,48.0,45.0,-100.00,ESE,115,1.0,9.0,89,0.00,,,0.00,0.000000,,2013-03-12 14:52:00,
2013-03-12 05:22:00,50.0,45.0,-100.00,WNW,299,3.0,9.0,83,0.00,,,0.00,0.000000,,2013-03-12 15:22:00,
2013-03-12 05:32:00,50.0,45.0,-100.00,WNW,299,3.0,9.0,83,0.00,,,0.00,0.000000,,2013-03-12 15:32:00,
2013-03-12 05:42:00,50.0,45.0,-100.00,WNW,299,3.0,9.0,83,0.00,,,0.00,0.000000,,2013-03-12 15:42:00,
2013-03-12 05:52:00,50.0,45.0,-100.00,WNW,299,3.0,9.0,83,0.00,,,0.00,0.000000,,2013-03-12 15:52:00,
2013-03-12 06:22:00,49.0,47.0,-100.00,NW,324,6.0,10.0,92,0.00,,,0.00,0.000000,,2013-03-12 16:22:00,
2013-03-12 06:32:00,49.0,47.0,-100.00,NW,324,6.0,10.0,92,0.00,,,0.00,0.000000,,2013-03-12 16:32:00,
2013-03-12 06:42:00,49.0,47.0,-100.00,NW,324,6.0,10.0,92,0.00,,,0.00,0.000000,,2013-03-12 16:42:00,
2013-03-12 06:52:00,49.0,47.0,-100.00,NW,324,6.0,10.0,92,0.00,,,0.00,0.000000,,2013-03-12 16:52:00,
2013-03-12 07:22:00,49.0,47.0,-100.00,SSW,200,3.0,9.0,92,0.00,,,0.00,3.000000,,2013-03-12 17:22:00,
2013-03-12 07:33:00,49.0,47.0,-100.00,SSW,200,3.0,9.0,92,0.00,,,0.00,3.000000,,2013-03-12 17:33:00,
2013-03-12 07:43:00,49.0,47.0,-100.00,SSW,200,3.0,9.0,92,0.00,,,0.00,3.000000,,2013-03-12 17:43:00,
2013-03-12 07:53:00,49.0,47.0,-100.00,SSW,200,3.0,9.0,92,0.00,,,0.00,3.000000,,2013-03-12 17:53:00,
2013-03-12 08:22:00,50.0,45.0,-100.00,WNW,295,5.0,8.0,82,0.00,,,0.00,65.000000,,2013-03-12 18:22:00,
2013-03-12 08:33:00,50.0,45.0,-100.00,WNW,295,5.0,8.0,82,0.00,,,0.00,65.000000,,2013-03-12 18:33:00,
2013-03-12 08:42:00,50.0,45.0,-100.00,WNW,295,5.0,8.0,82,0.00,,,0.00,65.000000,,2013-03-12 18:42:00,
2013-03-12 08:53:00,50.0,45.0,-100.00,WNW,295,5.0,8.0,82,0.00,,,0.00,65.000000,,2013-03-12 18:53:00,
2013-03-12 09:22:00,51.0,45.0,-100.00,WNW,294,8.0,19.0,80,0.00,,,0.00,174.000000,,2013-03-12 19:22:00,
2013-03-12 09:33:00,51.0,45.0,-100.00,WNW,294,8.0,19.0,80,0.00,,,0.00,174.000000,,2013-03-12 19:33:00,
2013-03-12 09:43:00,51.0,45.0,-100.00,WNW,294,8.0,19.0,80,0.00,,,0.00,174.000000,,2013-03-12 19:43:00,
2013-03-12 09:52:00,51.0,45.0,-100.00,WNW,294,8.0,19.0,80,0.00,,,0.00,174.000000,,2013-03-12 19:52:00,
2013-03-12 10:22:00,52.0,46.0,-100.00,NNW,327,7.0,16.0,79,0.00,,,0.00,145.000000,,2013-03-12 20:22:00,
2013-03-12 10:32:00,52.0,46.0,-100.00,NNW,327,7.0,16.0,79,0.00,,,0.00,145.000000,,2013-03-12 20:32:00,
2013-03-12 10:42:00,52.0,46.0,-100.00,NNW,327,7.0,16.0,79,0.00,,,0.00,145.000000,,2013-03-12 20:42:00,
2013-03-12 10:52:00,52.0,46.0,-100.00,NNW,327,7.0,16.0,79,0.00,,,0.00,145.000000,,2013-03-12 20:52:00,
2013-03-12 11:22:00,54.0,45.0,-100.00,NW,325,10.0,19.0,71,0.00,,,-99.99,337.000000,,2013-03-12 21:22:00,
2013-03-12 11:32:00,54.0,45.0,-100.00,NW,325,10.0,19.0,71,0.00,,,-99.99,337.000000,,2013-03-12 21:32:00,
2013-03-12 11:42:00,54.0,45.0,-100.00,NW,325,10.0,19.0,71,0.00,,,-99.99,337.000000,,2013-03-12 21:42:00,
2013-03-12 11:52:00,54.0,45.0,-100.00,NW,325,10.0,19.0,71,0.00,,,-99.99,337.000000,,2013-03-12 21:52:00,
2013-03-12 12:22:00,56.0,46.0,-100.00,NW,316,7.0,18.0,70,0.00,,,0.00,340.000000,,2013-03-12 22:22:00,
2013-03-12 12:32:00,56.0,46.0,-100.00,NW,316,7.0,18.0,70,0.00,,,0.00,340.000000,,2013-03-12 22:32:00,
2013-03-12 12:42:00,56.0,46.0,-100.00,NW,316,7.0,18.0,70,0.00,,,0.00,340.000000,,2013-03-12 22:42:00,
2013-03-12 12:52:00,56.0,46.0,-100.00,NW,316,7.0,18.0,70,0.00,,,0.00,340.000000,,2013-03-12 22:52:00,
2013-03-12 13:22:00,57.0,48.0,-100.00,NW,309,14.0,20.0,71,0.00,,,0.00,262.000000,,2013-03-12 23:22:00,
2013-03-12 13:34:00,57.0,48.0,-100.00,NW,309,14.0,20.0,71,0.00,,,0.00,262.000000,,2013-03-12 23:34:00,
2013-03-12 13:43:00,57.0,48.0,-100.00,NW,309,14.0,20.0,71,0.00,,,0.00,262.000000,,2013-03-12 23:43:00,
2013-03-12 13:52:00,57.0,48.0,-100.00,NW,309,14.0,20.0,71,0.00,,,0.00,262.000000,,2013-03-12 23:52:00,
2013-03-12 14:22:00,58.0,47.0,-100.00,WNW,297,15.0,25.0,67,0.00,,,0.00,477.000000,,2013-03-13 00:22:00,
2013-03-12 14:33:00,58.0,47.0,-100.00,WNW,297,15.0,25.0,67,0.00,,,0.00,477.000000,,2013-03-13 00:33:00,
2013-03-12 14:42:00,58.0,47.0,-100.00,WNW,297,15.0,25.0,67,0.00,,,0.00,477.000000,,2013-03-13 00:42:00,
2013-03-12 14:52:00,58.0,47.0,-100.00,WNW,297,15.0,25.0,67,0.00,,,0.00,477.000000,,2013-03-13 00:52:00,
2013-03-12 15:22:00,57.0,47.0,-100.00,NW,307,13.0,26.0,70,0.00,,,0.00,457.000000,,2013-03-13 01:22:00,
2013-03-12 15:32:00,57.0,47.0,-100.00,NW,307,13.0,26.0,70,0.00,,,0.00,457.000000,,2013-03-13 01:32:00,
2013-03-12 15:52:00,57.0,47.0,-100.00,NW,307,13.0,26.0,70,0.00,,,0.00,457.000000,,2013-03-13 01:52:00,
2013-03-12 16:22:00,57.0,48.0,-100.00,NW,305,12.0,20.0,73,0.00,,,0.00,285.000000,,2013-03-13 02:22:00,
2013-03-12 16:32:00,57.0,48.0,-100.00,NW,305,12.0,20.0,73,0.00,,,0.00,285.000000,,2013-03-13 02:32:00,
2013-03-12 16:42:00,57.0,48.0,-100.00,NW,305,12.0,20.0,73,0.00,,,0.00,285.000000,,2013-03-13 02:42:00,
2013-03-12 16:52:00,57.0,48.0,-100.00,NW,305,12.0,20.0,73,0.00,,,0.00,285.000000,,2013-03-13 02:52:00,
2013-03-12 17:22:00,57.0,48.0,-100.00,NW,307,10.0,18.0,72,0.00,,,0.00,263.000000,,2013-03-13 03:22:00,
2013-03-12 17:32:00,57.0,48.0,-100.00,NW,307,10.0,18.0,72,0.00,,,0.00,263.000000,,2013-03-13 03:32:00,
2013-03-12 17:42:00,57.0,48.0,-100.00,NW,307,10.0,18.0,72,0.00,,,0.00,263.000000,,2013-03-13 03:42:00,
2013-03-12 17:52:00,57.0,48.0,-100.00,NW,307,10.0,18.0,72,0.00,,,0.00,263.000000,,2013-03-13 03:52:00,
2013-03-12 18:22:00,55.0,48.0,-100.00,NW,307,10.0,19.0,78,0.00,,,0.00,113.000000,,2013-03-13 04:22:00,
2013-03-12 18:32:00,55.0,48.0,-100.00,NW,307,10.0,19.0,78,0.00,,,0.00,113.000000,,2013-03-13 04:32:00,
2013-03-12 18:42:00,55.0,48.0,-100.00,NW,307,10.0,19.0,78,0.00,,,0.00,113.000000,,2013-03-13 04:42:00,
2013-03-12 18:52:00,55.0,48.0,-100.00,NW,307,10.0,19.0,78,0.00,,,0.00,113.000000,,2013-03-13 04:52:00,
2013-03-12 19:22:00,53.0,48.0,-100.00,WNW,298,7.0,16.0,83,0.00,,,0.00,12.000000,,2013-03-13 05:22:00,
2013-03-12 19:32:00,53.0,48.0,-100.00,WNW,298,7.0,16.0,83,0.00,,,0.00,12.000000,,2013-03-13 05:32:00,
2013-03-12 19:42:00,53.0,48.0,-100.00,WNW,298,7.0,16.0,83,0.00,,,0.00,12.000000,,2013-03-13 05:42:00,
2013-03-12 19:52:00,53.0,48.0,-100.00,WNW,298,7.0,16.0,83,0.00,,,0.00,12.000000,,2013-03-13 05:52:00,
2013-03-12 20:22:00,53.0,47.0,-100.00,NW,308,7.0,11.0,81,0.00,,,0.00,0.000000,,2013-03-13 06:22:00,
2013-03-12 20:32:00,53.0,47.0,-100.00,NW,308,7.0,11.0,81,0.00,,,0.00,0.000000,,2013-03-13 06:32:00,
2013-03-12 20:42:00,53.0,47.0,-100.00,NW,308,7.0,11.0,81,0.00,,,0.00,0.000000,,2013-03-13 06:42:00,
2013-03-12 20:52:00,53.0,47.0,-100.00,NW,308,7.0,11.0,81,0.00,,,0.00,0.000000,,2013-03-13 06:52:00,
2013-03-12 21:22:00,53.0,47.0,-100.00,WNW,303,8.0,13.0,79,0.00,,,0.00,0.000000,,2013-03-13 07:22:00,
2013-03-12 21:32:00,53.0,47.0,-100.00,WNW,303,8.0,13.0,79,0.00,,,0.00,0.000000,,2013-03-13 07:32:00,
2013-03-12 21:42:00,53.0,47.0,-100.00,WNW,303,8.0,13.0,79,0.00,,,0.00,0.000000,,2013-03-13 07:42:00,
2013-03-12 21:52:00,53.0,47.0,-100.00,WNW,303,8.0,13.0,79,0.00,,,0.00,0.000000,,2013-03-13 07:52:00,
2013-03-12 22:22:00,51.0,46.0,-100.00,WNW,302,7.0,10.0,82,0.00,,,0.00,0.000000,,2013-03-13 08:22:00,
2013-03-12 22:32:00,51.0,46.0,-100.00,WNW,302,7.0,10.0,82,0.00,,,0.00,0.000000,,2013-03-13 08:32:00,
2013-03-12 22:42:00,51.0,46.0,-100.00,WNW,302,7.0,10.0,82,0.00,,,0.00,0.000000,,2013-03-13 08:42:00,
2013-03-12 22:52:00,51.0,46.0,-100.00,WNW,302,7.0,10.0,82,0.00,,,0.00,0.000000,,2013-03-13 08:52:00,
2013-03-12 23:22:00,52.0,48.0,-100.00,NW,304,6.0,10.0,85,0.00,,,0.00,0.000000,,2013-03-13 09:22:00,
2013-03-12 23:32:00,52.0,48.0,-100.00,NW,304,6.0,10.0,85,0.00,,,0.00,0.000000,,2013-03-13 09:32:00,
2013-03-12 23:42:00,52.0,48.0,-100.00,NW,304,6.0,10.0,85,0.00,,,0.00,0.000000,,2013-03-13 09:42:00,
2013-03-12 23:52:00,52.0,48.0,-100.00,NW,304,6.0,10.0,85,0.00,,,0.00,0.000000,,2013-03-13 09:52:00,